Weather in Bokovo

Russia / Kostroma Oblast     58°19′34″N   41°42′35″E
temp.,
°C
wind,
m/s
gust,
m/s
humid.,
%
clouds,
%
prec.,
mm/h
press.,
hPa
HPBL,
m
20 may, fri
fri2000:00+2nnw5992100 0.1 1013521
03:00+1n4894100 0.6 1015549
06:00+2n5884100 0.0 1016639
09:00+6n57595 0.0 10171362
12:00+8nnw5645100 0.0 10172105
15:00+8n5646100 0.1 10171940
18:00+8nnw465537 0.1 10161519
21:00+3n36795 0.1 1017100
21 may, sat
sat2100:000n26915 0.0 1017114
03:00−1n259115 0.0 101796
06:00+1n3574100 0.0 1016270
09:00+5n3557100 0.0 10151082
12:00+8n4545100 0.0 10132083
15:00+9nnw4547100 0.0 10112008
18:00+7n356368 0.3 10111156
21:00+2nnw227723 0.3 101125
22 may, sun
sun2200:000n24815 0.0 101061
03:00−1n25835 0.0 100984
06:00+2n37675 0.0 1008257
09:00+7n475097 0.0 10071709
12:00+8n5747100 0.0 10051965
15:00+9nne5847100 0.0 10052049
18:00+8nne485795 0.0 10051467
21:00+3n3478100 0.0 100573
23 may, mon
mon2300:00+1nw3884100 0.0 1004163
03:00+3nnw41173100 0.0 1003574
06:00+4nnw4107198 0.0 1003837
09:00+6nnw6954100 0.0 10021318
12:00+9nnw6944100 0.0 10011613
15:00+8n61056100 0.0 10031706
18:00+4nnw61277100 0.1 10041141
21:00+3nnw51284100 0.2 10041033
24 may, tue
tue2400:00+3nnw51288100 0.4 1004965
03:00+2nnw51197100 0.7 1004874
06:00+2nnw51097100 0.4 1006519
09:00+3n4782100 0.8 10071018
12:00+4n5676100 0.2 10101086
15:00+5n4674100 0.3 10121036
18:00+6n4671100 0.1 1013972
21:00+4n3779100 0.1 1015428